BCS933 GMTT-LFPG

Flight info

Callsign BCS933
Flight time N/A
Altitude 37000
Route NOLRO DCT ADKIM Z53 VJF N10 HIJ/N0444F360 DCT RUSEM DCT SOTUK DCT USOKO DCT TLD DCT SIE DCT EDIGO DCT DGO L176 LUSEM DCT LULUT DCT POI/N0410F300 DCT PEPAX UT182 KEPER
Aircraft B738/M-SDE2E3FGHIRWXY/LB1

Departure

Time 2026-05-04 18:55
Airport Tangier Ibn Battuta Airport (GMTT)

Arrival

Time N/A
Airport Charles de Gaulle International Airport (LFPG)
Time Latitude Longitude Altitude Speed Heading
2026-05-04 18:33 35.72624 -5.91617 40 ft 0 kts 121°
2026-05-04 18:44 35.72625 -5.91618 41 ft 2 kts 121°
2026-05-04 18:44 35.72632 -5.91636 38 ft 2 kts 107°
2026-05-04 18:45 35.72635 -5.91655 37 ft 2 kts 92°
2026-05-04 18:45 35.72634 -5.91675 37 ft 2 kts 76°
2026-05-04 18:45 35.72627 -5.91690 39 ft 2 kts 32°
2026-05-04 18:45 35.72616 -5.91696 39 ft 2 kts 356°
2026-05-04 18:46 35.72615 -5.91695 39 ft 0 kts 356°
2026-05-04 18:50 35.72628 -5.91696 39 ft 5 kts 356°
2026-05-04 18:50 35.72683 -5.91700 40 ft 11 kts 356°
2026-05-04 18:50 35.72772 -5.91710 39 ft 15 kts 355°
2026-05-04 18:50 35.72888 -5.91720 39 ft 16 kts 355°
2026-05-04 18:51 35.72939 -5.91629 40 ft 15 kts 95°
2026-05-04 18:51 35.72927 -5.91500 41 ft 15 kts 98°
2026-05-04 18:51 35.72916 -5.91377 44 ft 14 kts 94°
2026-05-04 18:51 35.72909 -5.91259 45 ft 14 kts 98°
2026-05-04 18:52 35.72893 -5.91148 47 ft 13 kts 98°
2026-05-04 18:52 35.72884 -5.91040 48 ft 13 kts 96°
2026-05-04 18:52 35.72887 -5.90930 48 ft 13 kts 72°
2026-05-04 18:52 35.72950 -5.90862 50 ft 7 kts
2026-05-04 18:53 35.72951 -5.90862 50 ft 0 kts
2026-05-04 18:53 35.72957 -5.90861 50 ft 3 kts
2026-05-04 18:53 35.73004 -5.90872 50 ft 11 kts 338°
2026-05-04 18:54 35.73055 -5.90932 49 ft 7 kts 272°
2026-05-04 18:54 35.73072 -5.91033 48 ft 25 kts 268°
2026-05-04 18:54 35.73111 -5.91537 41 ft 92 kts 276°
2026-05-04 18:54 35.73202 -5.92557 30 ft 146 kts 275°
2026-05-04 18:55 35.73319 -5.93852 464 ft 157 kts 279°
2026-05-04 18:55 35.74360 -5.96408 1557 ft 179 kts 304°
2026-05-04 18:55 35.75037 -5.97714 2222 ft 185 kts 300°
2026-05-04 18:56 35.75766 -5.99140 2428 ft 209 kts 302°
2026-05-04 18:56 35.76589 -6.00712 2675 ft 226 kts 302°
2026-05-04 18:56 35.77509 -6.02345 2908 ft 246 kts 313°
2026-05-04 18:56 35.79008 -6.03340 3639 ft 251 kts 349°
2026-05-04 18:57 35.80764 -6.03232 4419 ft 255 kts
2026-05-04 18:57 35.82518 -6.02926 5249 ft 257 kts
2026-05-04 18:57 35.84340 -6.02664 5781 ft 269 kts
2026-05-04 18:57 35.86228 -6.02421 6424 ft 277 kts
2026-05-04 18:58 35.88162 -6.02177 7085 ft 281 kts
2026-05-04 18:58 35.90119 -6.01930 7796 ft 284 kts
2026-05-04 18:58 35.92097 -6.01679 8495 ft 288 kts
2026-05-04 18:58 35.94083 -6.01427 9140 ft 294 kts
2026-05-04 18:59 35.96128 -6.01167 9848 ft 297 kts
2026-05-04 18:59 35.98198 -6.00903 10413 ft 305 kts
2026-05-04 18:59 36.00388 -6.00629 10564 ft 327 kts
2026-05-04 18:59 36.02709 -6.00336 10876 ft 342 kts
2026-05-04 19:00 36.05100 -6.00029 11419 ft 348 kts
2026-05-04 19:00 36.07516 -5.99715 12124 ft 350 kts
2026-05-04 19:00 36.09943 -5.99400 12839 ft 352 kts
2026-05-04 19:00 36.12393 -5.99083 13521 ft 356 kts
2026-05-04 19:01 36.14868 -5.98765 14192 ft 359 kts
2026-05-04 19:01 36.17325 -5.98448 14835 ft 362 kts
2026-05-04 19:01 36.19841 -5.98125 15494 ft 365 kts
2026-05-04 19:01 36.22381 -5.97798 16152 ft 369 kts
2026-05-04 19:02 36.24945 -5.97459 16800 ft 373 kts
2026-05-04 19:02 36.27535 -5.97037 17445 ft 378 kts
2026-05-04 19:02 36.30152 -5.96566 18076 ft 382 kts
2026-05-04 19:02 36.32788 -5.96079 18667 ft 385 kts
2026-05-04 19:03 36.35449 -5.95588 19261 ft 387 kts
2026-05-04 19:03 36.38087 -5.95106 19833 ft 390 kts
2026-05-04 19:03 36.40775 -5.94618 20394 ft 392 kts
2026-05-04 19:03 36.43488 -5.94131 20953 ft 395 kts
2026-05-04 19:04 36.46222 -5.93641 21496 ft 398 kts
2026-05-04 19:04 36.48976 -5.93150 22030 ft 401 kts
2026-05-04 19:04 36.51751 -5.92654 22560 ft 404 kts
2026-05-04 19:04 36.54540 -5.92157 23082 ft 407 kts
2026-05-04 19:05 36.57356 -5.91654 23580 ft 410 kts
2026-05-04 19:05 36.60183 -5.91148 24023 ft 413 kts
2026-05-04 19:05 36.62997 -5.90644 24443 ft 415 kts
2026-05-04 19:05 36.65863 -5.90131 24861 ft 417 kts
2026-05-04 19:06 36.68743 -5.89615 25268 ft 420 kts
2026-05-04 19:06 36.71641 -5.89095 25656 ft 422 kts
2026-05-04 19:06 36.74559 -5.88572 26045 ft 425 kts
2026-05-04 19:06 36.77492 -5.88045 26435 ft 427 kts
2026-05-04 19:07 36.80440 -5.87514 26813 ft 429 kts
2026-05-04 19:07 36.83402 -5.86982 27185 ft 432 kts
2026-05-04 19:07 36.86344 -5.86452 27567 ft 434 kts
2026-05-04 19:07 36.89348 -5.85910 27943 ft 436 kts
2026-05-04 19:08 36.92351 -5.85369 28294 ft 438 kts
2026-05-04 19:08 36.95378 -5.84823 28643 ft 441 kts
2026-05-04 19:08 36.98420 -5.84273 28980 ft 443 kts
2026-05-04 19:08 37.00442 -5.83907 29200 ft 444 kts
2026-05-04 19:09 37.04549 -5.83165 29640 ft 447 kts
2026-05-04 19:09 37.06589 -5.82796 29846 ft 449 kts
2026-05-04 19:09 37.09690 -5.82233 30166 ft 451 kts
2026-05-04 19:09 37.13804 -5.81486 30571 ft 452 kts
2026-05-04 19:10 37.16920 -5.80920 30821 ft 453 kts
2026-05-04 19:10 37.19030 -5.80536 30960 ft 455 kts
2026-05-04 19:10 37.23199 -5.79779 31269 ft 458 kts
2026-05-04 19:10 37.25285 -5.79399 31473 ft 458 kts
2026-05-04 19:11 37.28430 -5.78824 31838 ft 456 kts
2026-05-04 19:11 37.31561 -5.78252 32197 ft 454 kts
2026-05-04 19:11 37.34691 -5.77681 32530 ft 454 kts
2026-05-04 19:11 37.37819 -5.77110 32829 ft 454 kts
2026-05-04 19:12 37.40939 -5.76526 33143 ft 455 kts
2026-05-04 19:12 37.47031 -5.73857 33753 ft 472 kts 19°
2026-05-04 19:12 37.49935 -5.72045 34033 ft 472 kts 19°
2026-05-04 19:13 37.52875 -5.70207 34232 ft 473 kts 19°
2026-05-04 19:13 37.55834 -5.68371 34410 ft 474 kts 18°
2026-05-04 19:13 37.58801 -5.66546 34656 ft 474 kts 18°
2026-05-04 19:13 37.61772 -5.64730 34894 ft 474 kts 18°
2026-05-04 19:14 37.64739 -5.62925 35110 ft 474 kts 18°
2026-05-04 19:14 37.67715 -5.61118 35294 ft 475 kts 18°
2026-05-04 19:14 37.70692 -5.59311 35499 ft 475 kts 18°
2026-05-04 19:14 37.73671 -5.57501 35685 ft 476 kts 18°
2026-05-04 19:15 37.76617 -5.55709 35866 ft 476 kts 18°
2026-05-04 19:15 37.79604 -5.53890 36058 ft 477 kts 18°
2026-05-04 19:15 37.83603 -5.51450 36339 ft 477 kts 18°
2026-05-04 19:15 37.85580 -5.50244 36460 ft 478 kts 18°
2026-05-04 19:16 37.88575 -5.48413 36640 ft 478 kts 18°
2026-05-04 19:16 37.91567 -5.46583 36806 ft 478 kts 18°
2026-05-04 19:16 37.94564 -5.44748 36965 ft 479 kts 18°
2026-05-04 19:17 38.00549 -5.41080 36999 ft 482 kts 18°
2026-05-04 19:17 38.06555 -5.37387 37001 ft 478 kts 18°
2026-05-04 19:18 38.12527 -5.33711 37009 ft 476 kts 18°
2026-05-04 19:18 38.18468 -5.30049 36997 ft 473 kts 18°
2026-05-04 19:19 38.24342 -5.26423 36992 ft 472 kts 18°
2026-05-04 19:19 38.30241 -5.22774 37005 ft 471 kts 18°
2026-05-04 19:20 38.36147 -5.19114 37011 ft 473 kts 18°
2026-05-04 19:20 38.42077 -5.15433 37012 ft 475 kts 18°
2026-05-04 19:21 38.47995 -5.11751 37009 ft 478 kts 18°
2026-05-04 19:21 38.54024 -5.08202 37004 ft 476 kts 14°
2026-05-04 19:22 38.60193 -5.05092 37005 ft 478 kts 13°
2026-05-04 19:22 38.66396 -5.02006 37001 ft 479 kts 14°
2026-05-04 19:23 38.72596 -4.98850 36995 ft 479 kts 14°
2026-05-04 19:23 38.78737 -4.95688 37047 ft 478 kts 14°
2026-05-04 19:24 38.84909 -4.92504 37019 ft 477 kts 14°
2026-05-04 19:24 38.91068 -4.89322 37003 ft 476 kts 14°
2026-05-04 19:25 38.97215 -4.86144 36997 ft 475 kts 14°
2026-05-04 19:25 39.03301 -4.82989 37044 ft 474 kts 15°
2026-05-04 19:26 39.09424 -4.79804 37006 ft 474 kts 15°
2026-05-04 19:26 39.15533 -4.76619 36992 ft 473 kts 15°
2026-05-04 19:27 39.21624 -4.73447 36995 ft 471 kts 14°
2026-05-04 19:27 39.27665 -4.70300 37017 ft 472 kts 15°
2026-05-04 19:28 39.33758 -4.67120 37003 ft 473 kts 15°
2026-05-04 19:28 39.39861 -4.63929 37000 ft 474 kts 15°
2026-05-04 19:29 39.45977 -4.60725 36991 ft 475 kts 15°
2026-05-04 19:29 39.52063 -4.57529 37022 ft 477 kts 15°
2026-05-04 19:30 39.58213 -4.54296 37001 ft 477 kts 15°
2026-05-04 19:30 39.64378 -4.51046 36994 ft 479 kts 15°
2026-05-04 19:31 39.70549 -4.47786 36980 ft 479 kts 15°
2026-05-04 19:31 39.76687 -4.44539 36981 ft 480 kts 15°
2026-05-04 19:32 39.82866 -4.41253 36986 ft 480 kts 16°
2026-05-04 19:32 39.89038 -4.37934 36983 ft 480 kts 16°
2026-05-04 19:33 39.95212 -4.34610 37013 ft 480 kts 16°
2026-05-04 19:33 40.01320 -4.31177 36987 ft 482 kts 19°
2026-05-04 19:34 40.07390 -4.27429 36977 ft 483 kts 19°
2026-05-04 19:34 40.13450 -4.23658 36977 ft 482 kts 19°
2026-05-04 19:35 40.19509 -4.19930 36996 ft 481 kts 19°
2026-05-04 19:35 40.25529 -4.16246 36987 ft 481 kts 19°
2026-05-04 19:36 40.31581 -4.12539 36986 ft 480 kts 19°
2026-05-04 19:36 40.37631 -4.08824 36982 ft 480 kts 19°
2026-05-04 19:37 40.43671 -4.05107 36992 ft 480 kts 19°
2026-05-04 19:37 40.49718 -4.01378 36998 ft 480 kts 19°
2026-05-04 19:38 40.55718 -3.97669 36997 ft 480 kts 19°
2026-05-04 19:38 40.61762 -3.93927 37006 ft 480 kts 19°
2026-05-04 19:39 40.67808 -3.90176 36993 ft 481 kts 19°
2026-05-04 19:39 40.73824 -3.86435 36994 ft 481 kts 19°
2026-05-04 19:40 40.79878 -3.82663 36998 ft 481 kts 20°
2026-05-04 19:40 40.85924 -3.78890 37026 ft 480 kts 20°
2026-05-04 19:41 40.91971 -3.75107 37006 ft 481 kts 20°
2026-05-04 19:41 40.98021 -3.71313 37003 ft 481 kts 20°
2026-05-04 19:42 41.04036 -3.67535 37015 ft 482 kts 20°
2026-05-04 19:42 41.10105 -3.63715 37017 ft 484 kts 20°
2026-05-04 19:43 41.16197 -3.59897 37022 ft 484 kts 19°
2026-05-04 19:43 41.22397 -3.56454 37017 ft 483 kts 17°
2026-05-04 19:44 41.28598 -3.53155 37012 ft 484 kts 17°
2026-05-04 19:44 41.34838 -3.49770 37017 ft 484 kts 17°
2026-05-04 19:45 41.41064 -3.46347 37010 ft 484 kts 17°
2026-05-04 19:45 41.47279 -3.42921 37000 ft 483 kts 18°
2026-05-04 19:46 41.53479 -3.39504 37036 ft 481 kts 18°
2026-05-04 19:46 41.59626 -3.36115 37010 ft 481 kts 18°
2026-05-04 19:47 41.65800 -3.32703 37006 ft 480 kts 18°
2026-05-04 19:47 41.71962 -3.29289 37010 ft 479 kts 18°
2026-05-04 19:48 41.78123 -3.25869 37022 ft 479 kts 18°
2026-05-04 19:48 41.84237 -3.22468 37017 ft 479 kts 18°
2026-05-04 19:49 41.90387 -3.19040 37009 ft 479 kts 18°
2026-05-04 19:49 41.96532 -3.15607 37038 ft 479 kts 18°
2026-05-04 19:50 42.02690 -3.12159 37030 ft 479 kts 18°
2026-05-04 19:50 42.08808 -3.08727 37010 ft 480 kts 18°
2026-05-04 19:51 42.14967 -3.05265 37007 ft 480 kts 19°
2026-05-04 19:51 42.21127 -3.01793 37028 ft 480 kts 19°
2026-05-04 19:52 42.27287 -2.98316 37040 ft 480 kts 19°
2026-05-04 19:52 42.33444 -2.94831 37014 ft 480 kts 19°
2026-05-04 19:53 42.39552 -2.91368 37032 ft 480 kts 19°
2026-05-04 19:53 42.45595 -2.87531 37015 ft 483 kts 30°
2026-05-04 19:54 42.50785 -2.81727 37040 ft 485 kts 40°
2026-05-04 19:54 42.55772 -2.75564 37030 ft 485 kts 40°
2026-05-04 19:55 42.60784 -2.69450 37036 ft 485 kts 40°
2026-05-04 19:55 42.65787 -2.63392 37016 ft 485 kts 40°
2026-05-04 19:56 42.70822 -2.57294 37027 ft 485 kts 40°
2026-05-04 19:56 42.75856 -2.51178 37021 ft 485 kts 40°
2026-05-04 19:57 42.80882 -2.45056 37028 ft 485 kts 40°
2026-05-04 19:57 42.85875 -2.38958 37028 ft 485 kts 40°
2026-05-04 19:58 42.90899 -2.32809 37038 ft 485 kts 40°
2026-05-04 19:58 42.95925 -2.26645 37022 ft 486 kts 40°
2026-05-04 19:59 43.00947 -2.20466 37057 ft 486 kts 41°
2026-05-04 19:59 43.05965 -2.14257 37043 ft 486 kts 41°
2026-05-04 20:00 43.10932 -2.08100 37041 ft 486 kts 41°
2026-05-04 20:00 43.15941 -2.01889 37044 ft 485 kts 41°
2026-05-04 20:01 43.20938 -1.95679 37041 ft 485 kts 41°
2026-05-04 20:01 43.25924 -1.89467 37012 ft 484 kts 42°
2026-05-04 20:02 43.30899 -1.83346 37017 ft 483 kts 37°
2026-05-04 20:02 43.36605 -1.78612 37010 ft 478 kts 21°
2026-05-04 20:03 43.42739 -1.75140 37031 ft 477 kts 20°
2026-05-04 20:03 43.48888 -1.71683 37023 ft 477 kts 20°
2026-05-04 20:04 43.55036 -1.68218 37025 ft 478 kts 20°
2026-05-04 20:04 43.61186 -1.64739 37029 ft 478 kts 20°
2026-05-04 20:05 43.67344 -1.61246 37030 ft 479 kts 21°
2026-05-04 20:05 43.73466 -1.57765 37027 ft 479 kts 21°
2026-05-04 20:06 43.79635 -1.54249 37022 ft 480 kts 21°
2026-05-04 20:06 43.85806 -1.50725 37013 ft 480 kts 21°
2026-05-04 20:07 43.91980 -1.47191 37020 ft 480 kts 21°
2026-05-04 20:07 43.98156 -1.43647 37016 ft 481 kts 21°
2026-05-04 20:08 44.04295 -1.40118 37031 ft 481 kts 21°
2026-05-04 20:08 44.10477 -1.36555 37014 ft 481 kts 21°
2026-05-04 20:09 44.16655 -1.32987 37014 ft 481 kts 21°
2026-05-04 20:09 44.22836 -1.29409 37014 ft 480 kts 21°
2026-05-04 20:10 44.29000 -1.25832 37008 ft 480 kts 21°
2026-05-04 20:10 44.35166 -1.22246 37008 ft 480 kts 21°
2026-05-04 20:11 44.41280 -1.18682 36998 ft 479 kts 21°
2026-05-04 20:11 44.47425 -1.15093 36993 ft 478 kts 22°
2026-05-04 20:12 44.53560 -1.11500 36991 ft 477 kts 22°
2026-05-04 20:12 44.59683 -1.07907 36992 ft 477 kts 22°
2026-05-04 20:13 44.65798 -1.04309 36996 ft 476 kts 22°
2026-05-04 20:13 44.71869 -1.00730 36995 ft 476 kts 22°
2026-05-04 20:14 44.77979 -0.97119 36991 ft 476 kts 22°
2026-05-04 20:14 44.84088 -0.93501 36994 ft 476 kts 22°
2026-05-04 20:15 44.90197 -0.89875 36990 ft 476 kts 22°
2026-05-04 20:15 44.96268 -0.86262 36990 ft 477 kts 22°
2026-05-04 20:16 45.02379 -0.82617 36993 ft 477 kts 22°
2026-05-04 20:16 45.08499 -0.78959 36979 ft 478 kts 22°
2026-05-04 20:17 45.14620 -0.75291 36962 ft 478 kts 22°
2026-05-04 20:17 45.20740 -0.71615 36982 ft 478 kts 23°
2026-05-04 20:18 45.26818 -0.67956 36974 ft 478 kts 23°
2026-05-04 20:18 45.32948 -0.64257 36972 ft 478 kts 23°
2026-05-04 20:19 45.39075 -0.60551 36974 ft 479 kts 23°
2026-05-04 20:19 45.45200 -0.56838 36965 ft 479 kts 23°
2026-05-04 20:20 45.51327 -0.53114 36968 ft 478 kts 23°
2026-05-04 20:20 45.57403 -0.49413 36964 ft 478 kts 23°
2026-05-04 20:21 45.63523 -0.45676 36965 ft 478 kts 23°
2026-05-04 20:21 45.72685 -0.40065 36958 ft 477 kts 23°
2026-05-04 20:22 45.78743 -0.36344 36962 ft 477 kts 23°
2026-05-04 20:22 45.84838 -0.32591 36958 ft 476 kts 23°
2026-05-04 20:23 45.90923 -0.28835 36954 ft 476 kts 24°
2026-05-04 20:23 45.97005 -0.25073 36949 ft 476 kts 24°
2026-05-04 20:24 46.03119 -0.21408 36946 ft 476 kts 19°
2026-05-04 20:24 46.09395 -0.18593 36955 ft 476 kts 15°
2026-05-04 20:25 46.15767 -0.15981 36952 ft 476 kts 16°
2026-05-04 20:25 46.22119 -0.13290 36955 ft 476 kts 17°
2026-05-04 20:26 46.28461 -0.10514 36948 ft 476 kts 17°
2026-05-04 20:26 46.34760 -0.07723 36947 ft 476 kts 17°
2026-05-04 20:27 46.41095 -0.04907 36948 ft 476 kts 17°
2026-05-04 20:27 46.47431 -0.02088 36941 ft 476 kts 17°
2026-05-04 20:28 46.53766 0.00736 36922 ft 476 kts 17°
2026-05-04 20:28 46.60091 0.03592 36935 ft 475 kts 26°
2026-05-04 20:29 46.62950 0.05817 36811 ft 471 kts 46°